STARLINK-2479 (48136 NORAD) Tracking and Keplerian Element Data

This shows tracking and keplerian element data for the satellite.

Feedback or suggestion? Click here.




ElementValue
Catalog48136
NameSTARLINK-2479
Epoch Orbit195
Epoch Day173.91668981
Epoch Year2021
RAAN336.4552
Inclination53.0515
Eccentricity0.0001404
Argument of Perigee103.5597
Mean Anonmoly38.3245
Mean Motion15.06381429
Decay Rate0.00020694
L11 48136U 21027AW 21173.91668981 .00020694 00000-0 14048-2 0 9996
L22 48136 53.0515 336.4552 0001404 103.5597 38.3245 15.06381429 1959

Live tracking and technical data element details for STARLINK-2479 (NORAD 48136). STARLINK-2479 can be tracked NOW for your location showing map with azimuth and elevation plus other details from your city location.

Track the satellite on the map from your city or location and see movement details for azimuth, elevation, latitude, longitude, range, height, and movement on the map or in text.







IsCatalogInMostPopularTable: catalog: 48136, numindb: 34
Update: records affected: 1



GetName: 48136 STARLINK-2479

Hit Count: updated at: Thu, 24 Jun 2021 03:38:20 GMT